Location: *
(2.5500°S, 65.9667°W)
Time: 11:44:03
(UTC+00:00)

H-2A R/B - Pass Details

Date: 26 October 2021
Orbit: 733 x 837 km, 98.2° (Epoch: 28 November)

Event Time Altitude Azimuth Distance (km) Brightness Sun altitude
Rises 23:00:08 0° 171° (S) 3,281 5.3 -12.2°
Reaches altitude 10° 23:02:26 10° 172° (S) 2,365 4.6 -12.7°
Maximum altitude 23:07:41 79° 258° (WSW) 828 2.3 -14.0°
Drops below altitude 10° 23:13:02 10° 344° (NNW) 2,413 4.6 -15.3°
Sets 23:15:24 0° 346° (NNW) 3,353 5.3 -15.9°
